"Pseudo-MPEC" for P21XL1q

Created 2024 Sep 11 2:22:15 UT using Find_Orb

Click here for an explanation of pseudo-MPECs

 
 Astrometry: 
     P21XL1q* C2024 09 01.59159403 33 09.755-07 44 46.40   ~91G7 21.61wXNEOCPF52
     P21XL1q  C2024 09 01.60228503 33 09.963-07 44 39.64   ~91G7 21.74wXNEOCPF52
     P21XL1q  C2024 09 01.61290703 33 10.192-07 44 32.98   ~91G7 21.72wXNEOCPF52
     P21XL1q  C2024 09 01.62353403 33 10.401-07 44 26.49   ~91G7 21.85wXNEOCPF52

Station data:
(F52) Pan-STARRS 2, Haleakala  (N20.707382 W156.255910)  US/Hawaii.
   Observers J. Bulger, T. Dukes, T. Lowe, A. Schultz, M. Willman. Measurers
   K. Chambers, S. Chastel, T. de Boer, L. Denneau, J. Fairlamb, H.
   Flewelling, M. Huber, C.-C. Lin, E. Magnier, Y. Ramanjooloo, R. Wainscoat,
   R. Weryk. 1.8-m Ritchey-Chrétien + CCD.

Orbital elements:  P21XL1q
   Perihelion 2024 Mar 1.38790 +/- 78.5 TT =  9:18:34 (JD 2460370.88790)
Epoch 2024 Sep  2.0 TT = JDT 2460555.5   Earth MOID: 0.2078   Ma: 0.0195
M 117.24892772 +/- 120              (J2000 ecliptic)             AutoNEOCP
n   0.63510964 +/- 0.585            Peri.  200.09572 +/- 90
a   1.34040768 +/- 0.823            Node    36.44258 +/- 30
e   0.0981510 +/- 0.237             Incl.   23.89567 +/- 30
P   1.552/566.821d         H 19.92  G  0.15   U 12.4  SR
q 1.20884520 +/- 0.616    Q 1.47197016 +/- 39
From 4 observations 2024 Sept. 1 (46.0 min); mean residual 0".07
Residuals in arcseconds: 
240901 F52  .05+  .06-    240901 F52  .08+  .08+    
240901 F52  .11-  .04+    240901 F52  .02-  .07-    

Ephemerides (geocentric):
Date (UTC) HH   RA             Dec           delta  r     elong  mag " sig PA
---- --------  ------------   ------------  ------ ------ -----  --- --------
2024 09 11 02  03 34 45.255   -05 59 31.16  .65342 1.4205 116.0 21.3  55d  96
2024 09 11 03  03 34 44.994   -05 59 01.40  .65315 1.4205 116.1 21.3  55d  96
2024 09 11 04  03 34 44.726   -05 58 31.61  .65288 1.4206 116.1 21.3  55d  96
2024 09 11 05  03 34 44.452   -05 58 01.80  .65260 1.4206 116.1 21.3  55d  96
2024 09 11 06  03 34 44.171   -05 57 31.97  .65233 1.4206 116.2 21.3  55d  96
2024 09 11 07  03 34 43.884   -05 57 02.12  .65206 1.4207 116.2 21.3  55d  96
2024 09 11 08  03 34 43.591   -05 56 32.24  .65178 1.4207 116.2 21.3  55d  96
2024 09 11 09  03 34 43.291   -05 56 02.35  .65151 1.4208 116.3 21.3  55d  96
2024 09 11 10  03 34 42.985   -05 55 32.43  .65124 1.4208 116.3 21.3  55d  96
2024 09 11 11  03 34 42.673   -05 55 02.49  .65096 1.4209 116.4 21.3  55d  96
2024 09 11 12  03 34 42.354   -05 54 32.52  .65069 1.4209 116.4 21.3  56d  96
2024 09 11 13  03 34 42.028   -05 54 02.54  .65042 1.4210 116.4 21.3  56d  96
2024 09 11 14  03 34 41.696   -05 53 32.53  .65015 1.4210 116.5 21.3  56d  96
2024 09 11 15  03 34 41.358   -05 53 02.50  .64987 1.4210 116.5 21.3  56d  96
2024 09 11 16  03 34 41.013   -05 52 32.44  .64960 1.4211 116.5 21.3  56d  96
2024 09 11 17  03 34 40.661   -05 52 02.37  .64933 1.4211 116.6 21.3  56d  96
2024 09 11 18  03 34 40.303   -05 51 32.27  .64905 1.4212 116.6 21.3  56d  95
2024 09 11 19  03 34 39.939   -05 51 02.14  .64878 1.4212 116.7 21.3  56d  95
2024 09 11 20  03 34 39.568   -05 50 32.00  .64851 1.4213 116.7 21.3  56d  95
2024 09 11 21  03 34 39.191   -05 50 01.83  .64823 1.4213 116.7 21.3  56d  95
2024 09 11 22  03 34 38.807   -05 49 31.64  .64796 1.4214 116.8 21.3  56d  95
2024 09 11 23  03 34 38.417   -05 49 01.43  .64769 1.4214 116.8 21.3  56d  95
2024 09 12 00  03 34 38.020   -05 48 31.19  .64742 1.4215 116.8 21.3  56d  95
2024 09 12 01  03 34 37.616   -05 48 00.93  .64714 1.4215 116.9 21.3  56d  95
2024 09 12 02  03 34 37.206   -05 47 30.65  .64687 1.4215 116.9 21.3  56d  95
2024 09 12 03  03 34 36.790   -05 47 00.34  .64660 1.4216 117.0 21.3  56d  95
2024 09 12 04  03 34 36.367   -05 46 30.01  .64633 1.4216 117.0 21.3  56d  96
2024 09 12 05  03 34 35.937   -05 45 59.66  .64605 1.4217 117.0 21.3  56d  96
2024 09 12 06  03 34 35.501   -05 45 29.28  .64578 1.4217 117.1 21.3  56d  96
2024 09 12 07  03 34 35.059   -05 44 58.88  .64551 1.4218 117.1 21.3  56d  96
2024 09 12 08  03 34 34.609   -05 44 28.46  .64524 1.4218 117.1 21.3  56d  96
2024 09 12 09  03 34 34.154   -05 43 58.01  .64497 1.4219 117.2 21.3  57d  96
2024 09 12 10  03 34 33.691   -05 43 27.54  .64469 1.4219 117.2 21.3  57d  97
2024 09 12 11  03 34 33.222   -05 42 57.05  .64442 1.4220 117.3 21.3  57d  97
2024 09 12 12  03 34 32.747   -05 42 26.53  .64415 1.4220 117.3 21.3  58d  97
2024 09 12 13  03 34 32.264   -05 41 55.99  .64388 1.4220 117.3 21.3  58d  97
2024 09 12 14  03 34 31.776   -05 41 25.42  .64361 1.4221 117.4 21.3  59d  98
2024 09 12 15  03 34 31.280   -05 40 54.83  .64333 1.4221 117.4 21.3  59d  98
2024 09 12 16  03 34 30.778   -05 40 24.22  .64306 1.4222 117.4 21.3  60d  98
2024 09 12 17  03 34 30.270   -05 39 53.58  .64279 1.4222 117.5 21.3  60d  98
2024 09 12 18  03 34 29.755   -05 39 22.92  .64252 1.4223 117.5 21.3  60d  98
2024 09 12 19  03 34 29.233   -05 38 52.24  .64225 1.4223 117.6 21.3  61d  98
2024 09 12 20  03 34 28.704   -05 38 21.53  .64198 1.4224 117.6 21.3  61d  98
2024 09 12 21  03 34 28.169   -05 37 50.79  .64170 1.4224 117.6 21.3  61d  98
2024 09 12 22  03 34 27.627   -05 37 20.04  .64143 1.4224 117.7 21.3  61d  97
2024 09 12 23  03 34 27.079   -05 36 49.25  .64116 1.4225 117.7 21.3  62d  97
2024 09 13 00  03 34 26.524   -05 36 18.45  .64089 1.4225 117.7 21.3  62d  97
2024 09 13 01  03 34 25.962   -05 35 47.62  .64062 1.4226 117.8 21.3  62d  97